Location: Fluertsh�userhof
(48.7537°N, 10.3850°E)
Time: 05:02:11
(UTC+00:00)

COSMOS 2406 - Pass Details

Date: 18 September 2020
Orbit: 844 x 863 km, 71.0° (Epoch: 22 October)

Event Time Altitude Azimuth Distance (km) Brightness Sun altitude
Rises 19:02:49 0° 335° (NNW) 3,416 7.1 -16.6°
Reaches altitude 10° 19:05:40 10° 348° (NNW) 2,477 6.1 -17.1°
Maximum altitude 19:10:27 27° 45° (NE) 1,572 4.4 -17.8°
Enters shadow 19:12:19 23° 76° (ENE) 1,737 4.4 -18.1°
